STARLINK-35324

Last updated on Mon Oct 20 2025 00:02:07 GMT+0000 (Coordinated Universal Time)

1 65838U 25221R 25292.25002315 -.01556641 00000+0 -28600-1 0 9996 2 65838 53.1604 27.8089 0001093 91.2163 256.6793 15.51581430 4432
UTC large
Height (km)
Speed (km/s)
/
Latitude / Longitude
Inclination (degrees)
Orbital Period (minutes)
Azimuth
Elevation
Range (km)
Doppler Factor

Next 0 passes for location: London (51.5072 / 0.1276)

Sorry there are no passes over London.